Regional Weather Roundup
Issued by NWS Cleveland, OH

Home | Current Version | Previous Version | Graphics & Text | Print | Product List | Glossary On
Versions: 1 2 3 4 5 6 7 8 9 10 11 12 13 14 15 16 17 18 19 20 21 22 23 24 25 26 27 28 29 30 31 32 33 34 35 36 37 38 39 40 41 42 43 44 45 46 47 48 49 50
000
ASUS41 KCLE 031900
RWRCLE
OHIO REGIONAL WEATHER ROUNDUP
NATIONAL WEATHER SERVICE WILMINGTON, OH
300 PM EDT THU SEP 03 2015

NOTE: "FAIR" INDICATES FEW OR NO CLOUDS BELOW 12,000 FEET WITH NO
SIGNIFICANT WEATHER AND/OR OBSTRUCTIONS TO VISIBILITY.

OHZ001>008-015>018-024>027-034-035-043-044-032000-
   NORTHWEST OHIO

CITY           SKY/WX    TMP DP  RH WIND       PRES   REMARKS
DEFIANCE       MOSUNNY   89  64  43 W8        29.94F HX  90
FINDLAY        MOSUNNY   90  68  48 SW13G21   29.94F HX  94
TOLEDO EXPRESS PTSUNNY   88  68  51 SW12      29.93F HX  91
TOLEDO EXEC    FAIR      89  68  49 SW13G18   29.94S HX  93
LIMA           SUNNY     88  67  49 W10       29.97F HX  91
$$

OHZ009>014-019>023-028>033-038-089-032000-
   NORTHEAST OHIO

CITY           SKY/WX    TMP DP  RH WIND       PRES   REMARKS
CLE-HOPKINS    MOSUNNY   88  67  49 NW8       29.96F HX  91
CLE-LAKEFRONT  SUNNY     83  71  67 N6        29.94F
CUY CO. ARPT   MOSUNNY   86  70  58 NW10      29.97F HX  90
LORAIN-ELYRIA  MOSUNNY   87  68  52 NW5       29.95F HX  90
ASHTABULA      SUNNY     85  70  60 W7        29.95F
AKRON-CANTON   PTSUNNY   85  67  54 S6        29.97F
WOOSTER        NOT AVBL
MANSFIELD      MOSUNNY   86  65  49 W10       29.98F
YOUNGSTOWN     CLOUDY    83  68  60 NW5       29.96F THUNDER
$$

OHZ042-051>053-060>062-070>072-077>081-032000-
  SOUTHWEST OHIO

CITY           SKY/WX    TMP DP  RH WIND       PRES   REMARKS
CINC-COVINGTON MOSUNNY   91  65  41 W6        29.99F HX  93
CINC-LUNKEN    MOSUNNY   90  67  46 VRB3      29.97F HX  93
HAMILTON       SUNNY     90  65  43 VRB3      29.99F HX  92
DAYTON         NOT AVBL
WRIGHT-PAT AFB NOT AVBL
DAYTON GENERAL SUNNY     87  64  46 W7        29.99F
WILMINGTON     MOSUNNY   87  66  49 VRB6      29.99F
$$

OHZ036-037-039>041-045>050-054>059-063>069-073>076-082>088-032000-
  CENTRAL AND SOUTHEAST OHIO

CITY           SKY/WX    TMP DP  RH WIND       PRES   REMARKS
COLUMBUS       PTSUNNY   85  69  58 CALM      29.96F
OSU AIRPORT    PTSUNNY   89  69  51 W13       29.97F HX  93
BOLTON FIELD   NOT AVBL
RICKENBACK AFB NOT AVBL
NEWARK         MOSUNNY   87  70  56 SW7       29.97F HX  92
MARION         LGT RAIN  83  69  62 S3        29.97F
LANCASTER      PTSUNNY   82  66  58 NW9       29.98F
ZANESVILLE     MOSUNNY   86  66  51 NW7       29.96F
NEW PHILLY     MOSUNNY   90  67  46 VRB6      29.96  HX  93
$$


USA.gov is the U.S. government's official web portal to all federal, state and local government web resources and services.